Tracking 19903 objects as of 16-Oct-2019
HD Live streaming from Space Station
objects crossing your sky now

SL-8 DEB

Track SL-8 DEB now!
10-day predictions


NORAD ID: 21958
Int'l Code: 1991-009CG
Perigee: 1,506.7 km
Apogee: 1,721.2 km
Inclination: 74.0 °
Period: 118.4 minutes
Semi major axis: 7984 km
RCS: 0.0969 m2 (small)
Launch date: February 12, 1991
Source: Commonwealth of Independent States (former USSR) (CIS)
Launch site: PLESETSK MISSILE AND SPACE COMPLEX (PKMTR)

Note: This is SATELLITE DEBRIS
aabbcc
Your satellite tracking list
Your tracking list is empty




NASA's NSSDC Master Catalog

Two Line Element Set (TLE):
1 21958U 91009CG  19287.65752446 -.00000077 +00000-0 -60336-3 0  9997
2 21958 073.9682 031.2885 0134320 337.9617 136.5117 12.16722020270295
Source of the keplerian elements: AFSPC